This is the latest recevied weather packets stored in our database for station/object KD4UFD. If no packets are shown the sender has not sent any weather packets the latest 10 day(s).
| Time | Temp. | Humidity | Pressure | Rain* | Wind** | Luminosity | Snow |
|---|---|---|---|---|---|---|---|
| 1778111072 | 18.89° C | 99% | 1011.9 hPa | 10.67 mm | - | 1 W/m² | - |
| 1778110769 | 18.89° C | 99% | 1011.7 hPa | 14.99 mm | - | 2 W/m² | - |
| 1778110465 | 19.44° C | 98% | 1011.7 hPa | 7.87 mm | - | 1 W/m² | - |
| 1778110162 | 19.44° C | 98% | 1011.5 hPa | 1.27 mm | - | 2 W/m² | - |
| 1778109858 | 19.44° C | 98% | 1011.5 hPa | 3.05 mm | - | 4 W/m² | - |
| 1778109554 | 19.44° C | 98% | 1011.4 hPa | 1.78 mm | - | 4 W/m² | - |
| 1778109252 | 19.44° C | 98% | 1011.1 hPa | 0 mm | - | 11 W/m² | - |
| 1778108949 | 19.44° C | 98% | 1011.5 hPa | 0 mm | - | 27 W/m² | - |
| 1778108646 | 19.44° C | 98% | 1011.5 hPa | 1.78 mm | - | 16 W/m² | - |
| 1778108342 | 19.44° C | 98% | 1011.1 hPa | 1.78 mm | - | 23 W/m² | - |
| 1778108039 | 19.44° C | 98% | 1011.2 hPa | 0 mm | - | 30 W/m² | - |
| 1778107736 | 19.44° C | 98% | 1011.1 hPa | 0 mm | - | 12 W/m² | - |
| 1778107434 | 19.44° C | 98% | 1012.1 hPa | 1.27 mm | - | 10 W/m² | - |
| 1778107130 | 19.44° C | 98% | 1011.8 hPa | 1.27 mm | - | 26 W/m² | - |
| 1778106825 | 19.44° C | 98% | 1011.1 hPa | 0 mm | - | 59 W/m² | - |
| 1778106522 | 19.44° C | 98% | 1011.1 hPa | 0 mm | - | 61 W/m² | - |
| 1778106218 | 19.44° C | 97% | 1011.4 hPa | 0 mm | - | 58 W/m² | - |
| 1778105916 | 19.44° C | 97% | 1011.6 hPa | 0 mm | - | 60 W/m² | - |
| 1778105613 | 19.44° C | 97% | 1011.4 hPa | 1.78 mm | - | 71 W/m² | - |
| 1778105311 | 19.44° C | 97% | 1011.5 hPa | 3.05 mm | - | 63 W/m² | - |
| 1778105006 | 19.44° C | 97% | 1011.2 hPa | 1.27 mm | - | 41 W/m² | - |
| 1778104703 | 19.44° C | 97% | 1011.5 hPa | 0 mm | - | 33 W/m² | - |
| 1778104399 | 19.44° C | 96% | 1011.3 hPa | 0 mm | - | 24 W/m² | - |
| 1778104095 | 19.44° C | 96% | 1011.3 hPa | 1.78 mm | - | 19 W/m² | - |
| 1778103792 | 19.44° C | 96% | 1011 hPa | 1.78 mm | - | 35 W/m² | - |
* Rain latest hour (hover to see other rain measurements)
** Current wind speed in m/s (hover to see current wind gust speed)